Tracking 30102 objects as of 13-Dec-2024
HD Live streaming from Space Station
objects crossing your sky now

COSMOS 482 DESCENT CRAFT

Track COSMOS 482 DESCENT CRAFT now!
10-day predictions
COSMOS 482 DESCENT CRAFT is classified as:


NORAD ID: 6073
Int'l Code: 1972-023E
Perigee: 186.3 km
Apogee: 850.8 km
Inclination: 52.0 °
Period: 94.9 minutes
Semi major axis: 6889 km
RCS: 0.7153 m2 (medium)
Launch date: March 31, 1972
Source: Commonwealth of Independent States (former USSR) (CIS)
Launch site: TYURATAM MISSILE AND SPACE COMPLEX (TTMTR)
Your satellite tracking list
Your tracking list is empty




NASA's NSSDC Master Catalog

Two Line Element Set (TLE):
1  6073U 72023E   24347.76346816  .00133175  91367-5  14357-3 0  9995
2  6073  51.9833 259.8722 0482279 287.1977  67.6764 15.18165293728234
Source of the keplerian elements: AFSPC